EST,Max TemperatureF,Mean TemperatureF,Min TemperatureF,Max Dew PointF,MeanDew PointF,Min DewpointF,Max Humidity, Mean Humidity, Min Humidity, Max Sea Level PressureIn, Mean Sea Level PressureIn, Min Sea Level PressureIn, Max VisibilityMiles, Mean VisibilityMiles, Min VisibilityMiles, Max Wind SpeedMPH, Mean Wind SpeedMPH, Max Gust SpeedMPH,PrecipitationIn, CloudCover, Events, WindDirDegrees
2012-12-1,27,25,22,27,20,5,100,70,40,30.67,30.59,30.51,10,4,1,6,2,8,0.07,8,Rain-Snow,15
2012-12-2,46,36,26,45,33,26,100,96,92,30.51,30.27,30.00,8,2,0,12,3,15,0.13,8,Fog-Rain,174
2012-12-3,53,39,25,45,38,25,100,77,54,30.32,30.12,29.99,10,4,0,18,4,23,0.00,5,Fog,271
2012-12-4,50,38,25,50,33,25,100,96,92,30.32,30.20,29.92,6,2,0,9,1,12,T,6,Fog,212
2012-12-5,53,42,30,52,38,15,100,75,49,30.14,29.93,29.81,10,7,1,28,12,36,0.06,7,Rain,275
2012-12-6,39,29,18,18,16,14,92,65,37,30.33,30.27,30.15,10,10,10,22,7,29,0.00,2,,318
2012-12-7,38,28,18,34,28,16,100,82,64,30.29,30.13,30.04,10,5,1,8,2,10,0.09,6,Rain,168
2012-12-8,38,35,32,36,34,32,100,96,92,30.04,29.95,29.87,6,2,0,7,1,8,0.24,8,Fog-Rain,319
2012-12-9,44,36,27,36,29,25,100,75,49,30.31,30.16,29.96,10,6,0,17,2,21,0.03,3,Fog-Rain,343
2012-12-10,39,36,32,39,36,30,100,96,92,30.17,29.74,29.49,8,2,0,14,3,20,0.36,8,Fog-Rain,353
2012-12-11,44,37,29,38,32,19,100,80,59,30.14,29.81,29.58,10,10,4,16,7,22,0.05,7,Rain,308
2012-12-12,42,31,19,22,20,18,96,68,40,30.43,30.32,30.16,10,10,9,10,3,14,0.00,1,,311
2012-12-13,41,29,16,25,20,13,100,74,48,30.48,30.40,30.30,10,9,7,6,0,8,0.00,1,,50
2012-12-14,46,31,15,26,21,14,92,63,34,30.27,30.16,30.05,10,9,6,22,4,29,0.00,3,,257
2012-12-15,40,30,19,25,14,4,75,50,25,30.36,30.29,30.17,10,10,10,14,5,18,0.00,2,,332
2012-12-16,24,23,22,21,16,3,96,70,44,30.36,30.23,30.15,10,4,0,9,4,12,0.16,8,Fog-Rain-Snow,26
2012-12-17,33,28,23,32,26,21,100,94,88,30.14,30.02,29.88,9,3,0,10,6,15,0.24,8,Fog-Rain-Snow,19
2012-12-18,41,37,33,40,37,32,100,96,92,29.84,29.53,29.42,10,3,1,10,8,15,0.70,8,Rain,354
2012-12-19,44,39,34,38,32,28,92,75,57,30.04,29.69,29.44,10,10,3,24,11,33,0.02,6,Rain,317
2012-12-20,39,31,23,30,27,24,100,82,64,30.22,30.14,30.05,10,10,10,9,2,14,0.00,7,,64
2012-12-21,51,42,32,50,40,30,100,87,73,30.02,29.43,29.03,10,5,1,28,11,44,1.03,8,Rain-Snow,120
2012-12-22,37,31,24,31,22,12,89,71,52,29.62,29.36,29.18,10,10,9,24,11,32,T,7,,256
2012-12-23,39,27,15,22,15,10,80,58,35,29.82,29.76,29.63,10,10,10,21,7,30,0.00,4,,262
2012-12-24,36,29,22,23,16,12,75,57,38,30.07,29.99,29.83,10,10,10,17,6,23,0.00,2,,276
2012-12-25,34,26,18,25,20,11,91,77,63,30.25,30.08,30.02,10,8,1,12,4,16,0.02,6,Snow,318
2012-12-26,33,24,15,25,15,9,75,59,43,30.33,30.22,29.99,10,8,0,14,4,20,0.11,3,Fog-Snow,19
2012-12-27,32,29,26,29,27,23,92,85,78,29.97,29.58,29.40,10,2,0,20,12,30,0.64,8,Fog-Snow,7
2012-12-28,32,28,23,21,19,17,84,74,63,30.02,29.88,29.67,10,10,10,25,12,35,0.00,4,,314
2012-12-29,28,21,13,27,22,13,92,84,75,30.01,29.74,29.49,10,4,1,12,4,20,0.26,7,Snow,1
2012-12-30,27,22,17,25,13,5,92,73,54,29.96,29.68,29.47,10,9,2,29,16,38,0.03,4,Snow,313
2012-12-31,32,23,14,22,16,6,75,66,56,29.99,29.90,29.73,10,10,10,23,7,31,0.00,5,,263